Regional Weather Roundup
Issued by NWS Jackson, KY

Home | Current Version | Previous Version | Text Only | Print | Product List | Glossary On
Versions: 1 2 3 4 5 6 7 8 9 10 11 12 13 14 15 16 17 18 19 20 21 22 23 24 25 26 27 28
000
ASUS43 KJKL 290710
RWRJKL

EAST KENTUCKY HOURLY WEATHER ROUNDUP
NATIONAL WEATHER SERVICE JACKSON KY
300 AM EDT THU SEP 29 2016

NOTE: "FAIR" INDICATES FEW OR NO CLOUDS BELOW 12,000 FEET WITH
NO SIGNIFICANT WEATHER AND/OR OBSTRUCTIONS TO VISIBILITY.

* THESE REPORTS ARE NOT UNDER NWS QUALITY CONTROL AND MAY NOT
  REPORT WEATHER SUCH AS PRECIPITATION AND FOG.

KYZ079-080-083-085-087-088-110-112-115-119-120-290800
...EASTERN KENTUCKY...

CITY           SKY/WX    TMP DP  RH WIND       PRES   REMARKS
JACKSON        CLOUDY    57  55  93 CALM      29.98S FOG
LONDON         MOCLDY    55  52  89 W6        29.99S
SOMERSET*      PTCLDY    52  52 100 CALM      30.01S
MONTICELLO*    FOG       55  54  96 N8        30.02S VSB 1/2
WILLIAMSBURG*  MOSUNNY   54  54 100 CALM      30.00S
MIDDLESBORO*   LGT RAIN  59  58  99 CALM      29.99F
HARLAN APT*    CLOUDY    57  55  94 CALM      30.00R
PIKE CO APT*   DRIZZLE   57  55  92 S3        29.99S
MOREHEAD APT*  PTSUNNY   54  50  87 CALM      30.00R FOG
ASHLAND*       CLOUDY    59  55  88 SE3       29.96S
$$

KYZ035-036-041-042-044-050-067-078-099-290800
...CENTRAL KENTUCKY...

CITY           SKY/WX    TMP DP  RH WIND       PRES   REMARKS
MT STERLING*   CLOUDY    50  50 100 CALM      30.00S
FLEMING/MASON* MOCLDY    50  50  99 CALM      29.99S FOG
DANVILLE*      CLEAR     48  48 100 CALM      30.00S FOG
LEXINGTON      CLEAR     51  49  92 S5        29.98S FOG
FRANKFORT      CLOUDY    53  49  86 W6        29.97S
LOUISVILLE     MOCLDY    55  49  80 W5        29.99S
LEBANON*         N/A     54  52  94 W3        29.99S
GLASGOW*       CLEAR     50  50 100 CALM      30.01S
BOWLING GREEN  PTCLDY    51  47  86 W5        30.03S
$$

KYZ091>093-OHZ055-061-077-WVZ005-015-034-035-042-290800
...SOUTHERN OHIO/WEST VIRGINIA...

CITY           SKY/WX    TMP DP  RH WIND       PRES   REMARKS
COVINGTON      CLOUDY    52  52 100 W5        29.96S FOG
COLUMBUS       CLOUDY    57  57 100 SE7       29.96S
DAYTON         FOG       52  51  97 CALM      29.97R VSB 1/2
WILMINGTON     FOG       52  52 100 SE3       29.97R VSB 1/4
HUNTINGTON     MOCLDY    58  56  93 CALM      29.96F
CHARLESTON     CLOUDY    58  53  84 E3        29.97F
PINEVILLE*     CLOUDY    56  51  84 MISG      30.05F
BECKLEY        MOCLDY    53  49  86 E5        30.02F
BLUEFIELD      CLEAR     50  47  89 SE3       30.03F
LOGAN CO APT*  CLOUDY    57  54  88 CALM      29.98F
$$

VAZ002-007-008-TNZ017-027-036-066-071-290800
...SOUTHWEST VIRGINIA/EAST TENNESSEE...

CITY           SKY/WX    TMP DP  RH WIND       PRES   REMARKS
WISE*          CLOUDY    54  52  94 CALM      30.03S
JONESVILLE*    LGT RAIN  57  55  94 NW3       30.00F
ABINGDON*      CLEAR     57  51  80 E7        29.98F
BRISTOL        PTCLDY    58  51  78 N3        29.97F
MORRISTOWN*    PTSUNNY   59  54  82 CALM      29.97F
SEVIERVILLE*   MOSUNNY   55  52  88 CALM      29.97F
KNOXVILLE      CLOUDY    63  55  75 NE3       29.96F
OAK RIDGE      CLOUDY    64  52  64 VRB5      29.99S
CROSSVILLE     CLOUDY    55  52  89 NW3       30.01S
NASHVILLE        N/A     54  46  74 NW7       30.04F
$$

...KEY TO REMARKS...
VSB - VISIBILITY IN MILES
WCI - WIND CHILL INDEX
HX  - HEAT INDEX

$$




USA.gov is the U.S. government's official web portal to all federal, state and local government web resources and services.